TimeCDT,TemperatureF,Dew PointF,Humidity,Sea Level PressureIn,VisibilityMPH,Wind Direction,Wind SpeedMPH,Gust SpeedMPH,PrecipitationIn,Events,Conditions,WindDirDegrees,DateUTC
12:15 AM,72.5,71.2,96,29.94,5.0,Calm,Calm,-,N/A,,Clear,0,2013-09-02 05:15:00
12:35 AM,72.0,71.1,97,29.95,5.0,Calm,Calm,-,N/A,,Clear,0,2013-09-02 05:35:00
12:55 AM,72.0,71.1,97,29.94,5.0,Calm,Calm,-,N/A,,Clear,0,2013-09-02 05:55:00
1:15 AM,72.1,71.2,97,29.94,5.0,NE,3.5,-,N/A,Thunderstorm,Scattered Clouds,40,2013-09-02 06:15:00
1:35 AM,72.9,71.6,96,29.93,7.0,Calm,Calm,-,N/A,,Scattered Clouds,0,2013-09-02 06:35:00
1:55 AM,73.4,71.4,93,29.92,7.0,Calm,Calm,-,N/A,Thunderstorm,Clear,0,2013-09-02 06:55:00
2:15 AM,72.5,70.9,95,29.93,7.0,Calm,Calm,-,N/A,,Scattered Clouds,0,2013-09-02 07:15:00
2:35 AM,73.4,71.4,93,29.92,7.0,SSW,3.5,-,N/A,,Clear,200,2013-09-02 07:35:00
2:55 AM,74.3,72.0,92,29.91,7.0,SSW,5.8,-,N/A,,Clear,200,2013-09-02 07:55:00
3:15 AM,74.7,72.5,93,29.92,7.0,SSW,3.5,-,N/A,,Clear,200,2013-09-02 08:15:00
3:35 AM,75.0,72.5,92,29.92,7.0,South,8.1,-,N/A,,Clear,180,2013-09-02 08:35:00
3:55 AM,75.2,72.5,91,29.92,7.0,South,5.8,-,N/A,,Clear,180,2013-09-02 08:55:00
4:15 AM,75.0,72.1,91,29.93,7.0,SSE,4.6,-,N/A,,Scattered Clouds,160,2013-09-02 09:15:00
4:35 AM,72.7,69.3,89,29.98,10.0,NNW,6.9,19.6,N/A,Thunderstorm,Overcast,340,2013-09-02 09:35:00
4:55 AM,69.6,67.1,92,29.99,2.5,North,6.9,-,0.14,Rain-Thunderstorm,Heavy Thunderstorms and Rain,350,2013-09-02 09:55:00
5:15 AM,68.4,67.3,96,30.00,1.8,Calm,Calm,-,0.27,Rain-Thunderstorm,Heavy Thunderstorms and Rain,0,2013-09-02 10:15:00
5:35 AM,67.8,66.9,97,30.00,2.5,WSW,5.8,-,0.43,Rain-Thunderstorm,Thunderstorms and Rain,240,2013-09-02 10:35:00
5:55 AM,67.5,66.9,98,30.00,5.0,Calm,Calm,-,0.49,Rain-Thunderstorm,Thunderstorms and Rain,0,2013-09-02 10:55:00
6:15 AM,67.5,66.7,98,29.99,4.0,Calm,Calm,-,0.03,Rain-Thunderstorm,Heavy Thunderstorms and Rain,0,2013-09-02 11:15:00
6:35 AM,67.8,67.1,98,29.99,7.0,Calm,Calm,-,0.04,Rain-Thunderstorm,Rain,0,2013-09-02 11:35:00
6:55 AM,67.5,67.1,99,30.01,5.0,Calm,Calm,-,0.07,Rain,Rain,0,2013-09-02 11:55:00
7:15 AM,67.8,67.3,98,30.01,7.0,South,5.8,-,0.02,Rain-Thunderstorm,Light Thunderstorms and Rain,180,2013-09-02 12:15:00
7:35 AM,68.0,67.1,97,30.00,10.0,SE,5.8,-,0.02,,Scattered Clouds,140,2013-09-02 12:35:00
7:55 AM,68.0,67.1,97,30.01,7.0,South,5.8,-,0.02,Rain,Light Rain,180,2013-09-02 12:55:00
8:15 AM,68.0,67.3,98,30.02,7.0,South,5.8,-,N/A,Rain-Thunderstorm,Light Thunderstorms and Rain,190,2013-09-02 13:15:00
8:35 AM,68.2,67.6,98,30.03,7.0,South,6.9,-,N/A,,Mostly Cloudy,190,2013-09-02 13:35:00
8:55 AM,68.5,67.6,97,30.03,10.0,South,9.2,-,N/A,,Mostly Cloudy,180,2013-09-02 13:55:00
9:15 AM,68.9,67.6,96,30.03,10.0,South,5.8,-,N/A,,Mostly Cloudy,170,2013-09-02 14:15:00
9:35 AM,69.3,67.6,95,30.05,10.0,South,3.5,-,N/A,Thunderstorm,Mostly Cloudy,170,2013-09-02 14:35:00
9:55 AM,69.4,67.6,94,30.05,10.0,South,6.9,-,N/A,,Scattered Clouds,180,2013-09-02 14:55:00
10:15 AM,69.8,67.8,93,30.04,10.0,South,6.9,-,N/A,Rain,Rain,180,2013-09-02 15:15:00
10:35 AM,69.8,67.5,92,30.05,10.0,Calm,Calm,-,0.01,Thunderstorm,Mostly Cloudy,0,2013-09-02 15:35:00
10:55 AM,70.0,67.6,92,30.04,10.0,South,8.1,-,0.02,,Scattered Clouds,190,2013-09-02 15:55:00
11:15 AM,71.4,68.9,92,30.03,10.0,South,4.6,-,N/A,,Clear,190,2013-09-02 16:15:00
11:35 AM,72.9,69.3,88,30.02,10.0,South,6.9,-,N/A,,Scattered Clouds,190,2013-09-02 16:35:00
11:55 AM,75.0,69.4,83,30.01,10.0,SSW,6.9,-,N/A,,Clear,200,2013-09-02 16:55:00
12:15 PM,77.4,70.0,78,30.00,10.0,SW,6.9,-,N/A,,Clear,220,2013-09-02 17:15:00
12:35 PM,78.6,69.4,73,30.00,10.0,WSW,4.6,-,N/A,,Clear,250,2013-09-02 17:35:00
12:55 PM,79.0,69.1,72,30.00,10.0,SW,6.9,-,N/A,,Clear,230,2013-09-02 17:55:00
1:15 PM,80.1,69.1,69,29.99,10.0,SW,5.8,-,N/A,,Clear,220,2013-09-02 18:15:00
1:35 PM,81.0,68.7,66,29.99,10.0,WSW,3.5,-,N/A,,Clear,250,2013-09-02 18:35:00
1:55 PM,81.5,68.4,64,29.99,10.0,West,5.8,-,N/A,,Scattered Clouds,270,2013-09-02 18:55:00
2:15 PM,82.4,69.4,65,29.97,10.0,West,4.6,-,N/A,,Clear,270,2013-09-02 19:15:00
2:35 PM,83.3,70.0,64,29.96,10.0,West,9.2,-,N/A,,Clear,270,2013-09-02 19:35:00
2:55 PM,83.1,67.8,60,29.95,10.0,West,4.6,-,N/A,,Clear,270,2013-09-02 19:55:00
3:15 PM,83.8,68.4,59,29.94,10.0,West,6.9,-,N/A,,Clear,270,2013-09-02 20:15:00
3:35 PM,82.2,67.6,61,29.93,10.0,West,3.5,-,N/A,,Clear,280,2013-09-02 20:35:00
3:55 PM,82.2,67.5,61,29.93,10.0,West,5.8,-,N/A,,Clear,260,2013-09-02 20:55:00
4:15 PM,81.1,68.5,65,29.94,10.0,West,4.6,-,N/A,,Clear,270,2013-09-02 21:15:00
4:35 PM,81.1,69.3,67,29.94,10.0,WSW,3.5,-,N/A,,Clear,240,2013-09-02 21:35:00
4:55 PM,81.1,69.6,68,29.94,10.0,WSW,4.6,-,N/A,,Clear,240,2013-09-02 21:55:00
5:15 PM,81.0,69.8,69,29.94,10.0,West,4.6,-,N/A,,Clear,260,2013-09-02 22:15:00
5:35 PM,80.8,69.8,69,29.95,10.0,WSW,8.1,-,N/A,,Clear,250,2013-09-02 22:35:00
5:55 PM,79.3,70.3,74,29.94,10.0,SW,3.5,-,N/A,,Clear,220,2013-09-02 22:55:00
6:15 PM,78.6,71.1,78,29.94,10.0,SW,4.6,-,N/A,,Clear,220,2013-09-02 23:15:00
6:35 PM,78.1,71.4,80,29.94,10.0,SSW,5.8,-,N/A,,Clear,210,2013-09-02 23:35:00
6:55 PM,77.0,71.8,84,29.94,10.0,Calm,Calm,-,N/A,,Clear,0,2013-09-02 23:55:00
7:15 PM,75.6,71.8,88,29.93,10.0,SSW,4.6,-,N/A,,Clear,200,2013-09-03 00:15:00
7:35 PM,74.8,71.8,90,29.93,10.0,South,3.5,-,N/A,,Clear,180,2013-09-03 00:35:00
7:55 PM,74.3,72.0,92,29.93,10.0,Calm,Calm,-,N/A,,Clear,0,2013-09-03 00:55:00
8:15 PM,74.1,71.8,92,29.95,7.0,Calm,Calm,-,N/A,,Clear,0,2013-09-03 01:15:00
8:35 PM,73.8,71.8,93,29.96,10.0,Calm,Calm,-,N/A,,Clear,0,2013-09-03 01:35:00
8:55 PM,73.9,72.0,93,29.97,10.0,Calm,Calm,-,N/A,,Mostly Cloudy,0,2013-09-03 01:55:00
9:15 PM,74.3,72.0,92,29.97,7.0,South,4.6,-,N/A,,Mostly Cloudy,190,2013-09-03 02:15:00
9:35 PM,73.8,72.0,94,29.96,7.0,South,4.6,-,N/A,,Clear,170,2013-09-03 02:35:00
9:55 PM,73.9,72.0,93,29.96,10.0,South,4.6,-,N/A,,Clear,170,2013-09-03 02:55:00
10:15 PM,74.1,72.0,93,29.96,7.0,West,3.5,-,N/A,,Clear,280,2013-09-03 03:15:00
10:35 PM,73.4,71.8,95,29.97,7.0,Calm,Calm,-,N/A,,Scattered Clouds,0,2013-09-03 03:35:00
10:55 PM,73.0,71.8,96,29.97,7.0,Calm,Calm,-,N/A,,Clear,0,2013-09-03 03:55:00
11:15 PM,72.5,71.4,96,29.97,5.0,Calm,Calm,-,N/A,,Mostly Cloudy,0,2013-09-03 04:15:00
11:35 PM,72.7,71.8,97,29.97,5.0,South,3.5,-,N/A,,Overcast,190,2013-09-03 04:35:00
11:55 PM,73.6,72.1,95,29.96,5.0,Calm,Calm,-,N/A,,Mostly Cloudy,0,2013-09-03 04:55:00